Starlink 5030

operational
NORAD ID: 55418 Int'l Des: 2023-014 Owner: SPXS Country: US Constellation: starlink
LEOCIRCULAR

关于 Starlink 5030

正在加载描述...

实时位置

正在加载3D地球...

即将过境

高度历史

Altitude vs Time

uPlot chart will show altitude changes over time

两行轨道根数

1 55418U 23014AD 25306.45658936 .00000056 00000-0 12488-4 0 9993
2 55418 70.0012 45.2688 0002941 264.0387 96.0437 14.98333318152509
Epoch: Nov 2, 2025 • Age: 9 hours

当前状态

高度 583.8 km
速度 7.57 km/s
星下点 61.74°N, 152.19°W
发射日期 Jan 31, 2023
运行时间 2.7 years
类型 internet

技术详情

分类 Payload
质量 305.00 kg
干质量 290.00 kg
总质量 305.00 kg
长度 0.20 m
直径 2.80 m
跨度 9.00 m
形状 Box + pan
制造商 SPXS
平台类型 Starlink
阶段状态 In Orbit
所有者/国家 SPXS/US

大型星座

Loading constellations...